When you browse on this site, cookies collect data to enhance your experience and personalize the content and advertising you see.
Visit our Privacy Policy to learn more. By continuing to use the site, you agree to this use of cookies and data.
  • In Österreich
  • Länderverzeichnis
  • Für 7 Tage
  • Wassertemperatur
  • Satellitenkarten
  • Wetterkarte
  • News
  • Widgets
  • user-avatar
    Anmelden

    Stündliche Wetter Wien

    Heute, 12 Dezember, Mittwoch

    Zeit Temperatur Niederschläge Wind Luftdruck Luftfeuchtigkeit
    00:00 0°C° 0.4 mm 5 m/S 743 mmHg 83%
    01:00 +1°C° 0 mm 3 m/S 743 mmHg 82%
    02:00 +1°C° 0.5 mm 3 m/S 743 mmHg 84%
    03:00 +1°C° 0.5 mm 3 m/S 744 mmHg 85%
    04:00 +1°C° 0.5 mm 3 m/S 744 mmHg 87%
    05:00 +1°C° 0.4 mm 3 m/S 744 mmHg 88%
    06:00 0°C° 0.4 mm 3 m/S 744 mmHg 89%
    07:00 +1°C° 0 mm 2 m/S 744 mmHg 91%
    08:00 +1°C° 0.1 mm 2 m/S 744 mmHg 89%
    09:00 +1°C° 0.1 mm 3 m/S 745 mmHg 88%
    10:00 +1°C° 0.1 mm 3 m/S 745 mmHg 86%
    11:00 +1°C° 0.1 mm 3 m/S 745 mmHg 84%
    12:00 +2°C° 0.1 mm 3 m/S 745 mmHg 83%
    13:00 +2°C° 0.1 mm 3 m/S 745 mmHg 81%
    14:00 +2°C° 0.2 mm 3 m/S 745 mmHg 83%
    15:00 +2°C° 0.2 mm 2 m/S 745 mmHg 85%
    16:00 +2°C° 0.2 mm 2 m/S 746 mmHg 88%
    17:00 +1°C° 0.2 mm 2 m/S 746 mmHg 88%
    18:00 +1°C° 0.2 mm 2 m/S 746 mmHg 89%
    19:00 +1°C° 0.2 mm 2 m/S 746 mmHg 90%
    20:00 +1°C° 0.1 mm 2 m/S 746 mmHg 90%
    21:00 -1°C° 0.1 mm 2 m/S 747 mmHg 90%
    22:00 -1°C° 0.1 mm 2 m/S 747 mmHg 90%
    23:00 +1°C° 0 mm 1 m/S 747 mmHg 91%

    Morgen, 13 Dezember, Donnerstag

    Zeit Temperatur Niederschläge Wind Luftdruck Luftfeuchtigkeit
    00:00 0°C° 0 mm 1 m/S 747 mmHg 92%
    01:00 -1°C° 0 mm 1 m/S 747 mmHg 93%
    02:00 -1°C° 0 mm 1 m/S 747 mmHg 93%
    03:00 -1°C° 0 mm 1 m/S 747 mmHg 93%
    04:00 -1°C° 0 mm 1 m/S 747 mmHg 94%
    05:00 -1°C° 0 mm 1 m/S 747 mmHg 94%
    06:00 -1°C° 0 mm 1 m/S 747 mmHg 94%
    07:00 -2°C° 0 mm 1 m/S 747 mmHg 94%
    08:00 -1°C° 0 mm 1 m/S 747 mmHg 91%
    09:00 0°C° 0 mm 1 m/S 747 mmHg 89%
    10:00 0°C° 0 mm 1 m/S 747 mmHg 86%
    11:00 +1°C° 0 mm 1 m/S 746 mmHg 85%
    12:00 +1°C° 0 mm 1 m/S 746 mmHg 83%
    13:00 +1°C° 0 mm 2 m/S 746 mmHg 81%
    14:00 +1°C° 0 mm 2 m/S 746 mmHg 84%
    15:00 -1°C° 0 mm 2 m/S 746 mmHg 86%
    16:00 -1°C° 0 mm 2 m/S 745 mmHg 89%
    17:00 -2°C° 0 mm 2 m/S 746 mmHg 90%
    18:00 -2°C° 0 mm 2 m/S 746 mmHg 91%
    19:00 -2°C° 0 mm 2 m/S 746 mmHg 92%
    20:00 -2°C° 0 mm 2 m/S 746 mmHg 92%
    21:00 -3°C° 0 mm 2 m/S 746 mmHg 92%
    22:00 -3°C° 0 mm 2 m/S 746 mmHg 93%
    23:00 -3°C° 0 mm 2 m/S 746 mmHg 93%

    übermorgen, 14 Dezember, Freitag

    Zeit Temperatur Niederschläge Wind Luftdruck Luftfeuchtigkeit
    00:00 -3°C° 0 mm 2 m/S 746 mmHg 93%
    01:00 -3°C° 0 mm 2 m/S 746 mmHg 93%
    02:00 -3°C° 0 mm 2 m/S 746 mmHg 93%
    03:00 -3°C° 0 mm 2 m/S 746 mmHg 93%
    04:00 -3°C° 0 mm 2 m/S 746 mmHg 93%
    05:00 -3°C° 0 mm 2 m/S 746 mmHg 92%
    06:00 -3°C° 0 mm 2 m/S 746 mmHg 92%
    07:00 -3°C° 0 mm 2 m/S 747 mmHg 91%
    08:00 -3°C° 0 mm 2 m/S 747 mmHg 88%
    09:00 -2°C° 0 mm 2 m/S 747 mmHg 85%
    10:00 -2°C° 0 mm 2 m/S 747 mmHg 82%
    11:00 -1°C° 0 mm 2 m/S 747 mmHg 80%
    12:00 +1°C° 0 mm 2 m/S 747 mmHg 77%
    13:00 +1°C° 0 mm 2 m/S 747 mmHg 75%
    14:00 -1°C° 0 mm 2 m/S 747 mmHg 78%
    15:00 -1°C° 0 mm 2 m/S 747 mmHg 82%
    16:00 -2°C° 0 mm 2 m/S 747 mmHg 85%
    17:00 -3°C° 0 mm 2 m/S 747 mmHg 86%
    18:00 -1°C° 0 mm 1 m/S 747 mmHg 86%
    19:00 -1°C° 0 mm 1 m/S 747 mmHg 87%
    20:00 -1°C° 0 mm 1 m/S 748 mmHg 87%
    21:00 -2°C° 0 mm 1 m/S 748 mmHg 86%
    22:00 -2°C° 0 mm 1 m/S 748 mmHg 86%
    23:00 -2°C° 0 mm 1 m/S 748 mmHg 87%

    15 Dezember, Samstag

    Zeit Temperatur Niederschläge Wind Luftdruck Luftfeuchtigkeit
    00:00 -2°C° 0 mm 1 m/S 748 mmHg 87%
    01:00 -2°C° 0 mm 1 m/S 748 mmHg 87%
    02:00 -4°C° 0 mm 2 m/S 748 mmHg 88%
    03:00 -4°C° 0 mm 2 m/S 748 mmHg 88%
    04:00 -4°C° 0 mm 2 m/S 748 mmHg 89%
    05:00 -4°C° 0.1 mm 2 m/S 748 mmHg 89%
    06:00 -4°C° 0.1 mm 2 m/S 748 mmHg 89%
    07:00 -4°C° 0.1 mm 2 m/S 748 mmHg 89%
    08:00 -4°C° 0.2 mm 3 m/S 748 mmHg 88%
    09:00 -4°C° 0.2 mm 3 m/S 748 mmHg 87%
    10:00 -4°C° 0.2 mm 3 m/S 748 mmHg 86%
    11:00 -2°C° 0.2 mm 3 m/S 748 mmHg 85%
    12:00 -2°C° 0.2 mm 3 m/S 748 mmHg 84%
    13:00 -3°C° 0.2 mm 4 m/S 748 mmHg 83%
    14:00 -2°C° 0.2 mm 3 m/S 748 mmHg 84%
    15:00 -2°C° 0.2 mm 3 m/S 748 mmHg 86%
    16:00 -2°C° 0.2 mm 3 m/S 748 mmHg 87%
    17:00 -2°C° 0.2 mm 3 m/S 748 mmHg 88%
    18:00 -2°C° 0.2 mm 3 m/S 748 mmHg 88%
    19:00 -3°C° 0.2 mm 4 m/S 748 mmHg 89%
    20:00 -2°C° 0.1 mm 3 m/S 748 mmHg 89%
    21:00 -2°C° 0.1 mm 3 m/S 748 mmHg 89%
    22:00 -2°C° 0.1 mm 3 m/S 748 mmHg 89%
    23:00 -4°C° 0 mm 3 m/S 748 mmHg 89%

    16 Dezember, Sonntag

    Zeit Temperatur Niederschläge Wind Luftdruck Luftfeuchtigkeit
    00:00 -4°C° 0 mm 3 m/S 748 mmHg 89%
    01:00 -4°C° 0 mm 3 m/S 748 mmHg 90%
    02:00 -3°C° 0 mm 2 m/S 748 mmHg 90%
    03:00 -4°C° 0 mm 2 m/S 748 mmHg 90%
    04:00 -4°C° 0 mm 2 m/S 748 mmHg 91%
    05:00 -4°C° 0 mm 2 m/S 748 mmHg 91%
    06:00 -4°C° 0 mm 2 m/S 748 mmHg 91%
    07:00 -3°C° 0 mm 1 m/S 748 mmHg 91%
    08:00 -2°C° 0 mm 1 m/S 748 mmHg 89%
    09:00 -1°C° 0 mm 1 m/S 748 mmHg 86%
    10:00 -1°C° 0 mm 0 m/S 748 mmHg 84%
    11:00 0°C° 0 mm 1 m/S 747 mmHg 83%
    12:00 -1°C° 0 mm 2 m/S 746 mmHg 83%
    13:00 +1°C° 0 mm 2 m/S 746 mmHg 83%
    14:00 -1°C° 0 mm 3 m/S 746 mmHg 86%
    15:00 -2°C° 0 mm 3 m/S 746 mmHg 89%
    16:00 -2°C° 0 mm 3 m/S 746 mmHg 92%
    17:00 -2°C° 0 mm 3 m/S 746 mmHg 92%
    18:00 -2°C° 0 mm 3 m/S 746 mmHg 92%
    19:00 -3°C° 0 mm 4 m/S 746 mmHg 91%
    20:00 -3°C° 0 mm 4 m/S 745 mmHg 91%
    21:00 -3°C° 0 mm 4 m/S 745 mmHg 91%
    22:00 -3°C° 0 mm 4 m/S 745 mmHg 91%
    23:00 -3°C° 0 mm 4 m/S 745 mmHg 91%

    17 Dezember, Montag

    Zeit Temperatur Niederschläge Wind Luftdruck Luftfeuchtigkeit
    00:00 -3°C° 0 mm 4 m/S 745 mmHg 91%
    01:00 -4°C° 0 mm 5 m/S 744 mmHg 91%
    02:00 -3°C° 0 mm 4 m/S 744 mmHg 91%
    03:00 -2°C° 0 mm 4 m/S 744 mmHg 92%
    04:00 -2°C° 0 mm 4 m/S 743 mmHg 92%
    05:00 -1°C° 0.1 mm 3 m/S 743 mmHg 92%
    06:00 -1°C° 0.1 mm 3 m/S 744 mmHg 93%
    07:00 -1°C° 0.1 mm 2 m/S 744 mmHg 94%
    08:00 -1°C° 0.3 mm 2 m/S 744 mmHg 93%
    09:00 -1°C° 0.3 mm 2 m/S 744 mmHg 93%
    10:00 +1°C° 0.3 mm 2 m/S 745 mmHg 93%
    11:00 +2°C° 0 mm 1 m/S 745 mmHg 92%
    12:00 +3°C° 0 mm 1 m/S 745 mmHg 92%
    13:00 +3°C° 0 mm 1 m/S 745 mmHg 91%
    14:00 +3°C° 0 mm 1 m/S 745 mmHg 92%
    15:00 +2°C° 0 mm 1 m/S 745 mmHg 93%
    16:00 +2°C° 0 mm 1 m/S 746 mmHg 93%
    17:00 +2°C° 0 mm 1 m/S 746 mmHg 93%
    18:00 +1°C° 0 mm 1 m/S 747 mmHg 93%
    19:00 +1°C° 0 mm 1 m/S 747 mmHg 92%
    20:00 +1°C° 0 mm 1 m/S 747 mmHg 92%
    21:00 +1°C° 0 mm 1 m/S 748 mmHg 92%
    22:00 -1°C° 0 mm 2 m/S 748 mmHg 92%
    23:00 -1°C° 0 mm 2 m/S 748 mmHg 92%
    Mehr zeigen